Tracking 20628 objects as of 6-Apr-2020
HD Live streaming from Space Station
objects crossing your sky now

ZHUHAI-1 03E

Track ZHUHAI-1 03E now!
10-day predictions


NORAD ID: 44539
Int'l Code: 2019-060F
Perigee: 512.5 km
Apogee: 525.5 km
Inclination: 97.4 °
Period: 94.9 minutes
Semi major axis: 6890 km
RCS: Unknown
Launch date: September 19, 2019
Source: People's Republic of China (PRC)
Launch site: Jiuquan Satellite Launch Center, China (JSC)
aabbcc
Your satellite tracking list
Your tracking list is empty




NASA's NSSDC Master Catalog

Two Line Element Set (TLE):
1 44539U 19060F   20097.49183281  .00001043  00000-0  54543-4 0  9998
2 44539  97.4113 209.0057 0009401   5.5533  60.2103 15.18000538 30387
Source of the keplerian elements: AFSPC